Location: Newark
(48.0000°N, 67.0000°E)
Time: 14:18:47
(UTC+00:00)

Vanguard 2 - Pass Details

Date: 24 February 2020
Orbit: 552 x 2938 km, 32.9° (Epoch: 08 April)

Event Time Altitude Azimuth Distance (km) Brightness Sun altitude
Exits shadow 21:26:23 24° 125° (SE) 3,512 10.8 -45.9°
Drops below altitude 10° 21:33:06 10° 102° (ESE) 5,048 11.9 -45.2°
Sets 21:38:27 0° 94° (E) 6,383 12.6 -44.6°
